Year,Month,Day,Hour,Minute,Value (Times are PST for temperature in C)
2007,08,30,00,00,16.40
2007,08,30,00,01,16.40
2007,08,30,00,02,16.40
2007,08,30,00,03,16.40
2007,08,30,00,04,16.40
2007,08,30,00,05,16.30
2007,08,30,00,06,16.30
2007,08,30,00,07,16.30
2007,08,30,00,08,16.30
2007,08,30,00,09,16.30
2007,08,30,00,10,16.30
2007,08,30,00,11,16.30
2007,08,30,00,12,16.30
2007,08,30,00,13,16.30
2007,08,30,00,14,16.40
2007,08,30,00,15,16.40
2007,08,30,00,16,16.40
2007,08,30,00,17,16.40
2007,08,30,00,18,16.40
2007,08,30,00,19,16.40
2007,08,30,00,20,16.40
2007,08,30,00,21,16.40
2007,08,30,00,22,16.40
2007,08,30,00,23,16.40
2007,08,30,00,24,16.40
2007,08,30,00,25,16.40
2007,08,30,00,26,16.40
2007,08,30,00,27,16.40
2007,08,30,00,28,16.40
2007,08,30,00,29,16.40
2007,08,30,00,30,16.40
2007,08,30,00,31,16.40
2007,08,30,00,32,16.40
2007,08,30,00,33,16.40
2007,08,30,00,34,16.30
2007,08,30,00,35,16.30
2007,08,30,00,36,16.30
2007,08,30,00,37,16.30
2007,08,30,00,38,16.30
2007,08,30,00,39,16.30
2007,08,30,00,40,16.20
2007,08,30,00,41,16.20
2007,08,30,00,42,16.20
2007,08,30,00,43,16.20
2007,08,30,00,44,16.20
2007,08,30,00,45,16.10
2007,08,30,00,46,16.10
2007,08,30,00,47,16.10
2007,08,30,00,48,16.10
2007,08,30,00,49,16.20
2007,08,30,00,50,16.20
2007,08,30,00,51,16.20
2007,08,30,00,52,16.20
2007,08,30,00,53,16.20
2007,08,30,00,54,16.20
2007,08,30,00,55,16.20
2007,08,30,00,56,16.20
2007,08,30,00,57,16.20
2007,08,30,00,58,16.20
2007,08,30,00,59,16.20
2007,08,30,01,00,16.20
2007,08,30,01,01,16.20
2007,08,30,01,02,16.20
2007,08,30,01,03,16.20
2007,08,30,01,04,16.20
2007,08,30,01,05,16.20
2007,08,30,01,06,16.10
2007,08,30,01,07,16.10
2007,08,30,01,08,16.10
2007,08,30,01,09,16.10
2007,08,30,01,10,16.10
2007,08,30,01,11,16.10
2007,08,30,01,12,16.10
2007,08,30,01,13,16.10
2007,08,30,01,14,16.10
2007,08,30,01,15,16.10
2007,08,30,01,16,16.10
2007,08,30,01,17,16.10
2007,08,30,01,18,16.10
2007,08,30,01,19,16.00
2007,08,30,01,20,16.00
2007,08,30,01,21,15.90
2007,08,30,01,22,15.90
2007,08,30,01,23,15.90
2007,08,30,01,24,15.90
2007,08,30,01,25,15.90
2007,08,30,01,26,15.90
2007,08,30,01,27,15.80
2007,08,30,01,28,15.80
2007,08,30,01,29,15.80
2007,08,30,01,30,15.80
2007,08,30,01,31,15.80
2007,08,30,01,32,15.80
2007,08,30,01,33,15.80
2007,08,30,01,34,15.80
2007,08,30,01,35,15.80
2007,08,30,01,36,15.80
2007,08,30,01,37,15.80
2007,08,30,01,38,15.80
2007,08,30,01,39,15.70
2007,08,30,01,40,15.70
2007,08,30,01,41,15.70
2007,08,30,01,42,15.70
2007,08,30,01,43,15.60
2007,08,30,01,44,15.60
2007,08,30,01,45,15.60
2007,08,30,01,46,15.60
2007,08,30,01,47,15.50
2007,08,30,01,48,15.50
2007,08,30,01,49,15.50
2007,08,30,01,50,15.40
2007,08,30,01,51,15.40
2007,08,30,01,52,15.40
2007,08,30,01,53,15.40
2007,08,30,01,54,15.30
2007,08,30,01,55,15.30
2007,08,30,01,56,15.30
2007,08,30,01,57,15.30
2007,08,30,01,58,15.30
2007,08,30,01,59,15.30
2007,08,30,02,00,15.30
2007,08,30,02,01,15.30
2007,08,30,02,02,15.30
2007,08,30,02,03,15.30
2007,08,30,02,04,15.20
2007,08,30,02,05,15.20
2007,08,30,02,06,15.20
2007,08,30,02,07,15.20
2007,08,30,02,08,15.10
2007,08,30,02,09,15.10
2007,08,30,02,10,15.10
2007,08,30,02,11,15.10
2007,08,30,02,12,15.00
2007,08,30,02,13,15.00
2007,08,30,02,14,15.00
2007,08,30,02,15,15.00
2007,08,30,02,16,15.00
2007,08,30,02,17,14.90
2007,08,30,02,18,14.90
2007,08,30,02,19,14.90
2007,08,30,02,20,14.90
2007,08,30,02,21,14.80
2007,08,30,02,22,14.80
2007,08,30,02,23,14.80
2007,08,30,02,24,14.80
2007,08,30,02,25,14.80
2007,08,30,02,26,14.80
2007,08,30,02,27,14.80
2007,08,30,02,28,14.80
2007,08,30,02,29,14.80
2007,08,30,02,30,14.80
2007,08,30,02,31,14.80
2007,08,30,02,32,14.70
2007,08,30,02,33,14.70
2007,08,30,02,34,14.70
2007,08,30,02,35,14.70
2007,08,30,02,36,14.70
2007,08,30,02,37,14.60
2007,08,30,02,38,14.60
2007,08,30,02,39,14.60
2007,08,30,02,40,14.60
2007,08,30,02,41,14.60
2007,08,30,02,42,14.60
2007,08,30,02,43,14.60
2007,08,30,02,44,14.50
2007,08,30,02,45,14.50
2007,08,30,02,46,14.50
2007,08,30,02,47,14.50
2007,08,30,02,48,14.50
2007,08,30,02,49,14.50
2007,08,30,02,50,14.50
2007,08,30,02,51,14.40
2007,08,30,02,52,14.40
2007,08,30,02,53,14.40
2007,08,30,02,54,14.40
2007,08,30,02,55,14.30
2007,08,30,02,56,14.30
2007,08,30,02,57,14.30
2007,08,30,02,58,14.30
2007,08,30,02,59,14.30
2007,08,30,03,00,14.20
2007,08,30,03,01,14.20
2007,08,30,03,02,14.20
2007,08,30,03,03,14.20
2007,08,30,03,04,14.20
2007,08,30,03,05,14.20
2007,08,30,03,06,14.20
2007,08,30,03,07,14.20
2007,08,30,03,08,14.20
2007,08,30,03,09,14.20
2007,08,30,03,10,14.20
2007,08,30,03,11,14.20
2007,08,30,03,12,14.20
2007,08,30,03,13,14.20
2007,08,30,03,14,14.20
2007,08,30,03,15,14.20
2007,08,30,03,16,14.20
2007,08,30,03,17,14.20
2007,08,30,03,18,14.20
2007,08,30,03,19,14.20
2007,08,30,03,20,14.20
2007,08,30,03,21,14.20
2007,08,30,03,22,14.20
2007,08,30,03,23,14.10
2007,08,30,03,24,14.10
2007,08,30,03,25,14.10
2007,08,30,03,26,14.10
2007,08,30,03,27,14.10
2007,08,30,03,28,14.10
2007,08,30,03,29,14.10
2007,08,30,03,30,14.10
2007,08,30,03,31,14.10
2007,08,30,03,32,14.10
2007,08,30,03,33,14.00
2007,08,30,03,34,14.00
2007,08,30,03,35,14.00
2007,08,30,03,36,14.00
2007,08,30,03,37,14.00
2007,08,30,03,38,14.00
2007,08,30,03,39,14.00
2007,08,30,03,40,14.00
2007,08,30,03,41,13.90
2007,08,30,03,42,13.90
2007,08,30,03,43,13.90
2007,08,30,03,44,13.90
2007,08,30,03,45,13.90
2007,08,30,03,46,13.80
2007,08,30,03,47,13.80
2007,08,30,03,48,13.80
2007,08,30,03,49,13.80
2007,08,30,03,50,13.80
2007,08,30,03,51,13.80
2007,08,30,03,52,13.80
2007,08,30,03,53,13.80
2007,08,30,03,54,13.80
2007,08,30,03,55,13.80
2007,08,30,03,56,13.80
2007,08,30,03,57,13.80
2007,08,30,03,58,13.80
2007,08,30,03,59,13.80
2007,08,30,04,00,13.80
2007,08,30,04,01,13.80
2007,08,30,04,02,13.80
2007,08,30,04,03,13.80
2007,08,30,04,04,13.80
2007,08,30,04,05,13.70
2007,08,30,04,06,13.70
2007,08,30,04,07,13.70
2007,08,30,04,08,13.70
2007,08,30,04,09,13.70
2007,08,30,04,10,13.70
2007,08,30,04,11,13.70
2007,08,30,04,12,13.70
2007,08,30,04,13,13.70
2007,08,30,04,14,13.70
2007,08,30,04,15,13.70
2007,08,30,04,16,13.70
2007,08,30,04,17,13.70
2007,08,30,04,18,13.60
2007,08,30,04,19,13.60
2007,08,30,04,20,13.60
2007,08,30,04,21,13.60
2007,08,30,04,22,13.60
2007,08,30,04,23,13.50
2007,08,30,04,24,13.50
2007,08,30,04,25,13.50
2007,08,30,04,26,13.50
2007,08,30,04,27,13.50
2007,08,30,04,28,13.50
2007,08,30,04,29,13.50
2007,08,30,04,30,13.50
2007,08,30,04,31,13.50
2007,08,30,04,32,13.50
2007,08,30,04,33,13.50
2007,08,30,04,34,13.50
2007,08,30,04,35,13.50
2007,08,30,04,36,13.40
2007,08,30,04,37,13.40
2007,08,30,04,38,13.40
2007,08,30,04,39,13.40
2007,08,30,04,40,13.40
2007,08,30,04,41,13.40
2007,08,30,04,42,13.40
2007,08,30,04,43,13.40
2007,08,30,04,44,13.40
2007,08,30,04,45,13.30
2007,08,30,04,46,13.30
2007,08,30,04,47,13.30
2007,08,30,04,48,13.30
2007,08,30,04,49,13.30
2007,08,30,04,50,13.30
2007,08,30,04,51,13.20
2007,08,30,04,52,13.20
2007,08,30,04,53,13.20
2007,08,30,04,54,13.10
2007,08,30,04,55,13.10
2007,08,30,04,56,13.10
2007,08,30,04,57,13.10
2007,08,30,04,58,13.10
2007,08,30,04,59,13.10
2007,08,30,05,00,13.10
2007,08,30,05,01,13.10
2007,08,30,05,02,13.10
2007,08,30,05,03,13.10
2007,08,30,05,04,13.00
2007,08,30,05,05,13.00
2007,08,30,05,06,13.00
2007,08,30,05,07,13.00
2007,08,30,05,08,12.90
2007,08,30,05,09,12.90
2007,08,30,05,10,12.90
2007,08,30,05,11,12.80
2007,08,30,05,12,12.80
2007,08,30,05,13,12.80
2007,08,30,05,14,12.80
2007,08,30,05,15,12.80
2007,08,30,05,16,12.80
2007,08,30,05,17,12.80
2007,08,30,05,18,12.70
2007,08,30,05,19,12.70
2007,08,30,05,20,12.70
2007,08,30,05,21,12.70
2007,08,30,05,22,12.70
2007,08,30,05,23,12.70
2007,08,30,05,24,12.70
2007,08,30,05,25,12.70
2007,08,30,05,26,12.70
2007,08,30,05,27,12.60
2007,08,30,05,28,12.60
2007,08,30,05,29,12.60
2007,08,30,05,30,12.60
2007,08,30,05,31,12.60
2007,08,30,05,32,12.60
2007,08,30,05,33,12.60
2007,08,30,05,34,12.60
2007,08,30,05,35,12.60
2007,08,30,05,36,12.60
2007,08,30,05,37,12.60
2007,08,30,05,38,12.60
2007,08,30,05,39,12.60
2007,08,30,05,40,12.60
2007,08,30,05,41,12.60
2007,08,30,05,42,12.60
2007,08,30,05,43,12.60
2007,08,30,05,44,12.60
2007,08,30,05,45,12.60
2007,08,30,05,46,12.60
2007,08,30,05,47,12.60
2007,08,30,05,48,12.60
2007,08,30,05,49,12.60
2007,08,30,05,50,12.60
2007,08,30,05,51,12.60
2007,08,30,05,52,12.60
2007,08,30,05,53,12.50
2007,08,30,05,54,12.50
2007,08,30,05,55,12.60
2007,08,30,05,56,12.60
2007,08,30,05,57,12.60
2007,08,30,05,58,12.60
2007,08,30,05,59,12.60
2007,08,30,06,00,12.60
2007,08,30,06,01,12.60
2007,08,30,06,02,12.60
2007,08,30,06,03,12.60
2007,08,30,06,04,12.60
2007,08,30,06,05,12.50
2007,08,30,06,06,12.50
2007,08,30,06,07,12.50
2007,08,30,06,08,12.50
2007,08,30,06,09,12.50
2007,08,30,06,10,12.50
2007,08,30,06,11,12.50
2007,08,30,06,12,12.50
2007,08,30,06,13,12.50
2007,08,30,06,14,12.50
2007,08,30,06,15,12.50
2007,08,30,06,16,12.50
2007,08,30,06,17,12.50
2007,08,30,06,18,12.50
2007,08,30,06,19,12.50
2007,08,30,06,20,12.50
2007,08,30,06,21,12.50
2007,08,30,06,22,12.40
2007,08,30,06,23,12.40
2007,08,30,06,24,12.40
2007,08,30,06,25,12.40
2007,08,30,06,26,12.40
2007,08,30,06,27,12.40
2007,08,30,06,28,12.40
2007,08,30,06,29,12.40
2007,08,30,06,30,12.40
2007,08,30,06,31,12.40
2007,08,30,06,32,12.40
2007,08,30,06,33,12.40
2007,08,30,06,34,12.40
2007,08,30,06,35,12.40
2007,08,30,06,36,12.40
2007,08,30,06,37,12.40
2007,08,30,06,38,12.40
2007,08,30,06,39,12.40
2007,08,30,06,40,12.30
2007,08,30,06,41,12.30
2007,08,30,06,42,12.30
2007,08,30,06,43,12.30
2007,08,30,06,44,12.30
2007,08,30,06,45,12.30
2007,08,30,06,46,12.30
2007,08,30,06,47,12.30
2007,08,30,06,48,12.30
2007,08,30,06,49,12.30
2007,08,30,06,50,12.30
2007,08,30,06,51,12.30
2007,08,30,06,52,12.30
2007,08,30,06,53,12.30
2007,08,30,06,54,12.30
2007,08,30,06,55,12.30
2007,08,30,06,56,12.30
2007,08,30,06,57,12.30
2007,08,30,06,58,12.30
2007,08,30,06,59,12.20
2007,08,30,07,00,12.30
2007,08,30,07,01,12.30
2007,08,30,07,02,12.30
2007,08,30,07,03,12.30
2007,08,30,07,04,12.30
2007,08,30,07,05,12.30
2007,08,30,07,06,12.30
2007,08,30,07,07,12.30
2007,08,30,07,08,12.20
2007,08,30,07,09,12.20
2007,08,30,07,10,12.20
2007,08,30,07,11,12.20
2007,08,30,07,12,12.10
2007,08,30,07,13,12.10
2007,08,30,07,14,12.10
2007,08,30,07,15,12.10
2007,08,30,07,16,12.10
2007,08,30,07,17,12.00
2007,08,30,07,18,12.00
2007,08,30,07,19,12.00
2007,08,30,07,20,12.00
2007,08,30,07,21,12.00
2007,08,30,07,22,12.10
2007,08,30,07,23,12.10
2007,08,30,07,24,12.10
2007,08,30,07,25,12.20
2007,08,30,07,26,12.30
2007,08,30,07,27,12.30
2007,08,30,07,28,12.30
2007,08,30,07,29,12.40
2007,08,30,07,30,12.50
2007,08,30,07,31,12.60
2007,08,30,07,32,12.70
2007,08,30,07,33,12.80
2007,08,30,07,34,13.00
2007,08,30,07,35,13.00
2007,08,30,07,36,13.10
2007,08,30,07,37,13.20
2007,08,30,07,38,13.40
2007,08,30,07,39,13.50
2007,08,30,07,40,13.60
2007,08,30,07,41,13.70
2007,08,30,07,42,13.90
2007,08,30,07,43,14.00
2007,08,30,07,44,14.10
2007,08,30,07,45,14.20
2007,08,30,07,46,14.30
2007,08,30,07,47,14.40
2007,08,30,07,48,14.50
2007,08,30,07,49,14.60
2007,08,30,07,50,14.70
2007,08,30,07,51,14.70
2007,08,30,07,52,14.80
2007,08,30,07,53,14.90
2007,08,30,07,54,15.00
2007,08,30,07,55,15.10
2007,08,30,07,56,15.30
2007,08,30,07,57,15.50
2007,08,30,07,58,15.70
2007,08,30,07,59,15.80
2007,08,30,08,00,16.00
2007,08,30,08,01,16.10
2007,08,30,08,02,16.20
2007,08,30,08,03,16.30
2007,08,30,08,04,16.30
2007,08,30,08,05,16.40
2007,08,30,08,06,16.40
2007,08,30,08,07,16.50
2007,08,30,08,08,16.60
2007,08,30,08,09,16.60
2007,08,30,08,10,16.70
2007,08,30,08,11,16.70
2007,08,30,08,12,16.80
2007,08,30,08,13,16.90
2007,08,30,08,14,17.10
2007,08,30,08,15,17.30
2007,08,30,08,16,17.40
2007,08,30,08,17,17.50
2007,08,30,08,18,17.60
2007,08,30,08,19,17.70
2007,08,30,08,20,17.80
2007,08,30,08,21,17.80
2007,08,30,08,22,17.90
2007,08,30,08,23,18.00
2007,08,30,08,24,18.10
2007,08,30,08,25,18.10
2007,08,30,08,26,18.20
2007,08,30,08,27,18.20
2007,08,30,08,28,18.30
2007,08,30,08,29,18.30
2007,08,30,08,30,18.40
2007,08,30,08,31,18.40
2007,08,30,08,32,18.50
2007,08,30,08,33,18.50
2007,08,30,08,34,18.60
2007,08,30,08,35,18.60
2007,08,30,08,36,18.60
2007,08,30,08,37,18.70
2007,08,30,08,38,18.70
2007,08,30,08,39,18.70
2007,08,30,08,40,18.70
2007,08,30,08,41,18.80
2007,08,30,08,42,18.80
2007,08,30,08,43,18.80
2007,08,30,08,44,18.80
2007,08,30,08,45,18.80
2007,08,30,08,46,18.90
2007,08,30,08,47,18.90
2007,08,30,08,48,18.90
2007,08,30,08,49,18.90
2007,08,30,08,50,18.90
2007,08,30,08,51,18.90
2007,08,30,08,52,18.90
2007,08,30,08,53,19.00
2007,08,30,08,54,19.10
2007,08,30,08,55,19.10
2007,08,30,08,56,19.10
2007,08,30,08,57,19.20
2007,08,30,08,58,19.20
2007,08,30,08,59,19.30
2007,08,30,09,00,19.30
2007,08,30,09,01,19.30
2007,08,30,09,02,19.30
2007,08,30,09,03,19.40
2007,08,30,09,04,19.40
2007,08,30,09,05,19.40
2007,08,30,09,06,19.40
2007,08,30,09,07,19.50
2007,08,30,09,08,19.50
2007,08,30,09,09,19.50
2007,08,30,09,10,19.60
2007,08,30,09,11,19.60
2007,08,30,09,12,19.70
2007,08,30,09,13,19.80
2007,08,30,09,14,19.90
2007,08,30,09,15,20.00
2007,08,30,09,16,20.10
2007,08,30,09,17,20.20
2007,08,30,09,18,20.20
2007,08,30,09,19,20.20
2007,08,30,09,20,20.20
2007,08,30,09,21,20.30
2007,08,30,09,22,20.40
2007,08,30,09,23,20.50
2007,08,30,09,24,20.50
2007,08,30,09,25,20.60
2007,08,30,09,26,20.70
2007,08,30,09,27,20.70
2007,08,30,09,28,20.80
2007,08,30,09,29,20.80
2007,08,30,09,30,20.80
2007,08,30,09,31,20.80
2007,08,30,09,32,20.80
2007,08,30,09,33,20.70
2007,08,30,09,34,20.70
2007,08,30,09,35,20.70
2007,08,30,09,36,20.80
2007,08,30,09,37,20.70
2007,08,30,09,38,20.70
2007,08,30,09,39,20.70
2007,08,30,09,40,20.70
2007,08,30,09,41,20.70
2007,08,30,09,42,20.70
2007,08,30,09,43,20.70
2007,08,30,09,44,20.70
2007,08,30,09,45,20.70
2007,08,30,09,46,20.70
2007,08,30,09,47,20.80
2007,08,30,09,48,20.80
2007,08,30,09,49,20.80
2007,08,30,09,50,20.90
2007,08,30,09,51,20.90
2007,08,30,09,52,21.00
2007,08,30,09,53,21.00
2007,08,30,09,54,21.00
2007,08,30,09,55,21.00
2007,08,30,09,56,21.00
2007,08,30,09,57,21.00
2007,08,30,09,58,21.00
2007,08,30,09,59,21.00
2007,08,30,10,00,21.00
2007,08,30,10,01,20.90
2007,08,30,10,02,20.90
2007,08,30,10,03,20.90
2007,08,30,10,04,20.90
2007,08,30,10,05,21.00
2007,08,30,10,06,21.10
2007,08,30,10,07,21.10
2007,08,30,10,08,21.10
2007,08,30,10,09,21.10
2007,08,30,10,10,21.10
2007,08,30,10,11,21.10
2007,08,30,10,12,21.10
2007,08,30,10,13,21.10
2007,08,30,10,14,21.10
2007,08,30,10,15,21.20
2007,08,30,10,16,21.20
2007,08,30,10,17,21.30
2007,08,30,10,18,21.30
2007,08,30,10,19,21.30
2007,08,30,10,20,21.40
2007,08,30,10,21,21.50
2007,08,30,10,22,21.60
2007,08,30,10,23,21.70
2007,08,30,10,24,21.80
2007,08,30,10,25,21.90
2007,08,30,10,26,21.90
2007,08,30,10,27,21.90
2007,08,30,10,28,21.90
2007,08,30,10,29,21.90
2007,08,30,10,30,22.00
2007,08,30,10,31,22.00
2007,08,30,10,32,22.10
2007,08,30,10,33,22.20
2007,08,30,10,34,22.20
2007,08,30,10,35,22.30
2007,08,30,10,36,22.30
2007,08,30,10,37,22.30
2007,08,30,10,38,22.40
2007,08,30,10,39,22.50
2007,08,30,10,40,22.50
2007,08,30,10,41,22.50
2007,08,30,10,42,22.50
2007,08,30,10,43,22.50
2007,08,30,10,44,22.50
2007,08,30,10,45,22.50
2007,08,30,10,46,22.50
2007,08,30,10,47,22.50
2007,08,30,10,48,22.60
2007,08,30,10,49,22.60
2007,08,30,10,50,22.70
2007,08,30,10,51,22.70
2007,08,30,10,52,22.70
2007,08,30,10,53,22.60
2007,08,30,10,54,22.60
2007,08,30,10,55,22.50
2007,08,30,10,56,22.50
2007,08,30,10,57,22.50
2007,08,30,10,58,22.50
2007,08,30,10,59,22.50
2007,08,30,11,00,22.60
2007,08,30,11,01,22.60
2007,08,30,11,02,22.60
2007,08,30,11,03,22.60
2007,08,30,11,04,22.60
2007,08,30,11,05,22.60
2007,08,30,11,06,22.60
2007,08,30,11,07,22.60
2007,08,30,11,08,22.50
2007,08,30,11,09,22.50
2007,08,30,11,10,22.50
2007,08,30,11,11,22.50
2007,08,30,11,12,22.50
2007,08,30,11,13,22.50
2007,08,30,11,14,22.50
2007,08,30,11,15,22.50
2007,08,30,11,16,22.50
2007,08,30,11,17,22.50
2007,08,30,11,18,22.40
2007,08,30,11,19,22.40
2007,08,30,11,20,22.40
2007,08,30,11,21,22.40
2007,08,30,11,22,22.50
2007,08,30,11,23,22.50
2007,08,30,11,24,22.60
2007,08,30,11,25,22.60
2007,08,30,11,26,22.60
2007,08,30,11,27,22.60
2007,08,30,11,28,22.70
2007,08,30,11,29,22.60
2007,08,30,11,30,22.60
2007,08,30,11,31,22.70
2007,08,30,11,32,22.70
2007,08,30,11,33,22.80
2007,08,30,11,34,22.90
2007,08,30,11,35,23.00
2007,08,30,11,36,23.20
2007,08,30,11,37,23.30
2007,08,30,11,38,23.40
2007,08,30,11,39,23.60
2007,08,30,11,40,23.70
2007,08,30,11,41,23.70
2007,08,30,11,42,23.90
2007,08,30,11,43,24.00
2007,08,30,11,44,24.10
2007,08,30,11,45,24.10
2007,08,30,11,46,24.30
2007,08,30,11,47,24.40
2007,08,30,11,48,24.50
2007,08,30,11,49,24.60
2007,08,30,11,50,24.80
2007,08,30,11,51,24.90
2007,08,30,11,52,25.10
2007,08,30,11,53,25.30
2007,08,30,11,54,25.50
2007,08,30,11,55,25.70
2007,08,30,11,56,25.80
2007,08,30,11,57,25.90
2007,08,30,11,58,26.00
2007,08,30,11,59,26.00
2007,08,30,12,00,26.00
2007,08,30,12,01,26.10
2007,08,30,12,02,26.10
2007,08,30,12,03,26.20
2007,08,30,12,04,26.20
2007,08,30,12,05,26.20
2007,08,30,12,06,26.30
2007,08,30,12,07,26.40
2007,08,30,12,08,26.40
2007,08,30,12,09,26.40
2007,08,30,12,10,26.50
2007,08,30,12,11,26.60
2007,08,30,12,12,26.60
2007,08,30,12,13,26.60
2007,08,30,12,14,26.60
2007,08,30,12,15,26.60
2007,08,30,12,16,26.60
2007,08,30,12,17,26.70
2007,08,30,12,18,26.70
2007,08,30,12,19,26.70
2007,08,30,12,20,26.70
2007,08,30,12,21,26.60
2007,08,30,12,22,26.60
2007,08,30,12,23,26.50
2007,08,30,12,24,26.40
2007,08,30,12,25,26.50
2007,08,30,12,26,26.50
2007,08,30,12,27,26.40
2007,08,30,12,28,26.40
2007,08,30,12,29,26.40
2007,08,30,12,30,26.40
2007,08,30,12,31,26.50
2007,08,30,12,32,26.60
2007,08,30,12,33,26.60
2007,08,30,12,34,26.60
2007,08,30,12,35,26.60
2007,08,30,12,36,26.60
2007,08,30,12,37,26.50
2007,08,30,12,38,26.40
2007,08,30,12,39,26.30
2007,08,30,12,40,26.20
2007,08,30,12,41,26.20
2007,08,30,12,42,26.30
2007,08,30,12,43,26.30
2007,08,30,12,44,26.40
2007,08,30,12,45,26.40
2007,08,30,12,46,26.50
2007,08,30,12,47,26.60
2007,08,30,12,48,26.60
2007,08,30,12,49,26.60
2007,08,30,12,50,26.60
2007,08,30,12,51,26.50
2007,08,30,12,52,26.40
2007,08,30,12,53,26.50
2007,08,30,12,54,26.60
2007,08,30,12,55,26.60
2007,08,30,12,56,26.70
2007,08,30,12,57,26.80
2007,08,30,12,58,26.80
2007,08,30,12,59,26.80
2007,08,30,13,00,26.80
2007,08,30,13,01,26.80
2007,08,30,13,02,26.70
2007,08,30,13,03,26.60
2007,08,30,13,04,26.60
2007,08,30,13,05,26.60
2007,08,30,13,06,26.50
2007,08,30,13,07,26.40
2007,08,30,13,08,26.30
2007,08,30,13,09,26.40
2007,08,30,13,10,26.40
2007,08,30,13,11,26.30
2007,08,30,13,12,26.30
2007,08,30,13,13,26.30
2007,08,30,13,14,26.20
2007,08,30,13,15,26.20
2007,08,30,13,16,26.20
2007,08,30,13,17,26.20
2007,08,30,13,18,26.10
2007,08,30,13,19,26.10
2007,08,30,13,20,26.20
2007,08,30,13,21,26.20
2007,08,30,13,22,26.30
2007,08,30,13,23,26.30
2007,08,30,13,24,26.40
2007,08,30,13,25,26.40
2007,08,30,13,26,26.30
2007,08,30,13,27,26.30
2007,08,30,13,28,26.40
2007,08,30,13,29,26.50
2007,08,30,13,30,26.60
2007,08,30,13,31,26.60
2007,08,30,13,32,26.60
2007,08,30,13,33,26.70
2007,08,30,13,34,26.60
2007,08,30,13,35,26.60
2007,08,30,13,36,26.60
2007,08,30,13,37,26.60
2007,08,30,13,38,26.60
2007,08,30,13,39,26.60
2007,08,30,13,40,26.60
2007,08,30,13,41,26.60
2007,08,30,13,42,26.60
2007,08,30,13,43,26.60
2007,08,30,13,44,26.60
2007,08,30,13,45,26.60
2007,08,30,13,46,26.50
2007,08,30,13,47,26.40
2007,08,30,13,48,26.30
2007,08,30,13,49,26.20
2007,08,30,13,50,26.20
2007,08,30,13,51,26.20
2007,08,30,13,52,26.20
2007,08,30,13,53,26.40
2007,08,30,13,54,26.40
2007,08,30,13,55,26.60
2007,08,30,13,56,26.60
2007,08,30,13,57,26.60
2007,08,30,13,58,26.60
2007,08,30,13,59,26.60
2007,08,30,14,00,26.60
2007,08,30,14,01,26.60
2007,08,30,14,02,26.60
2007,08,30,14,03,26.50
2007,08,30,14,04,26.30
2007,08,30,14,05,26.20
2007,08,30,14,06,26.20
2007,08,30,14,07,26.20
2007,08,30,14,08,26.20
2007,08,30,14,09,26.20
2007,08,30,14,10,26.20
2007,08,30,14,11,26.10
2007,08,30,14,12,26.20
2007,08,30,14,13,26.20
2007,08,30,14,14,26.20
2007,08,30,14,15,26.20
2007,08,30,14,16,26.10
2007,08,30,14,17,26.10
2007,08,30,14,18,26.10
2007,08,30,14,19,26.20
2007,08,30,14,20,26.20
2007,08,30,14,21,26.20
2007,08,30,14,22,26.10
2007,08,30,14,23,26.00
2007,08,30,14,24,26.10
2007,08,30,14,25,26.10
2007,08,30,14,26,26.10
2007,08,30,14,27,26.20
2007,08,30,14,28,26.30
2007,08,30,14,29,26.30
2007,08,30,14,30,26.30
2007,08,30,14,31,26.30
2007,08,30,14,32,26.30
2007,08,30,14,33,26.30
2007,08,30,14,34,26.30
2007,08,30,14,35,26.40
2007,08,30,14,36,26.40
2007,08,30,14,37,26.40
2007,08,30,14,38,26.40
2007,08,30,14,39,26.30
2007,08,30,14,40,26.40
2007,08,30,14,41,26.60
2007,08,30,14,42,26.60
2007,08,30,14,43,26.70
2007,08,30,14,44,26.90
2007,08,30,14,45,26.90
2007,08,30,14,46,26.90
2007,08,30,14,47,26.90
2007,08,30,14,48,26.70
2007,08,30,14,49,26.60
2007,08,30,14,50,26.50
2007,08,30,14,51,26.40
2007,08,30,14,52,26.40
2007,08,30,14,53,26.30
2007,08,30,14,54,26.20
2007,08,30,14,55,26.20
2007,08,30,14,56,26.20
2007,08,30,14,57,26.20
2007,08,30,14,58,26.20
2007,08,30,14,59,26.20
2007,08,30,15,00,26.20
2007,08,30,15,01,26.20
2007,08,30,15,02,26.20
2007,08,30,15,03,26.30
2007,08,30,15,04,26.30
2007,08,30,15,05,26.30
2007,08,30,15,06,26.40
2007,08,30,15,07,26.40
2007,08,30,15,08,26.40
2007,08,30,15,09,26.40
2007,08,30,15,10,26.40
2007,08,30,15,11,26.50
2007,08,30,15,12,26.60
2007,08,30,15,13,26.60
2007,08,30,15,14,26.60
2007,08,30,15,15,26.70
2007,08,30,15,16,26.60
2007,08,30,15,17,26.60
2007,08,30,15,18,26.60
2007,08,30,15,19,26.60
2007,08,30,15,20,26.60
2007,08,30,15,21,26.60
2007,08,30,15,22,26.60
2007,08,30,15,23,26.60
2007,08,30,15,24,26.60
2007,08,30,15,25,26.50
2007,08,30,15,26,26.40
2007,08,30,15,27,26.30
2007,08,30,15,28,26.30
2007,08,30,15,29,26.30
2007,08,30,15,30,26.10
2007,08,30,15,31,26.10
2007,08,30,15,32,26.00
2007,08,30,15,33,26.00
2007,08,30,15,34,26.00
2007,08,30,15,35,26.10
2007,08,30,15,36,26.10
2007,08,30,15,37,26.20
2007,08,30,15,38,26.10
2007,08,30,15,39,26.10
2007,08,30,15,40,26.00
2007,08,30,15,41,26.00
2007,08,30,15,42,26.00
2007,08,30,15,43,25.90
2007,08,30,15,44,26.00
2007,08,30,15,45,25.90
2007,08,30,15,46,25.90
2007,08,30,15,47,26.00
2007,08,30,15,48,26.00
2007,08,30,15,49,26.10
2007,08,30,15,50,26.10
2007,08,30,15,51,26.00
2007,08,30,15,52,26.10
2007,08,30,15,53,26.10
2007,08,30,15,54,26.20
2007,08,30,15,55,26.20
2007,08,30,15,56,26.20
2007,08,30,15,57,26.20
2007,08,30,15,58,26.20
2007,08,30,15,59,26.10
2007,08,30,16,00,25.90
2007,08,30,16,01,25.80
2007,08,30,16,02,25.70
2007,08,30,16,03,25.60
2007,08,30,16,04,25.60
2007,08,30,16,05,25.60
2007,08,30,16,06,25.60
2007,08,30,16,07,25.60
2007,08,30,16,08,25.50
2007,08,30,16,09,25.50
2007,08,30,16,10,25.50
2007,08,30,16,11,25.50
2007,08,30,16,12,25.50
2007,08,30,16,13,25.50
2007,08,30,16,14,25.40
2007,08,30,16,15,25.40
2007,08,30,16,16,25.40
2007,08,30,16,17,25.40
2007,08,30,16,18,25.50
2007,08,30,16,19,25.50
2007,08,30,16,20,25.60
2007,08,30,16,21,25.60
2007,08,30,16,22,25.60
2007,08,30,16,23,25.60
2007,08,30,16,24,25.60
2007,08,30,16,25,25.50
2007,08,30,16,26,25.50
2007,08,30,16,27,25.50
2007,08,30,16,28,25.50
2007,08,30,16,29,25.50
2007,08,30,16,30,25.40
2007,08,30,16,31,25.40
2007,08,30,16,32,25.50
2007,08,30,16,33,25.40
2007,08,30,16,34,25.40
2007,08,30,16,35,25.40
2007,08,30,16,36,25.40
2007,08,30,16,37,25.40
2007,08,30,16,38,25.30
2007,08,30,16,39,25.20
2007,08,30,16,40,25.10
2007,08,30,16,41,25.10
2007,08,30,16,42,25.10
2007,08,30,16,43,25.20
2007,08,30,16,44,25.20
2007,08,30,16,45,25.20
2007,08,30,16,46,25.20
2007,08,30,16,47,25.20
2007,08,30,16,48,25.20
2007,08,30,16,49,25.20
2007,08,30,16,50,25.20
2007,08,30,16,51,25.20
2007,08,30,16,52,25.30
2007,08,30,16,53,25.30
2007,08,30,16,54,25.30
2007,08,30,16,55,25.30
2007,08,30,16,56,25.30
2007,08,30,16,57,25.20
2007,08,30,16,58,25.10
2007,08,30,16,59,25.10
2007,08,30,17,00,25.10
2007,08,30,17,01,25.20
2007,08,30,17,02,25.20
2007,08,30,17,03,25.20
2007,08,30,17,04,25.10
2007,08,30,17,05,25.10
2007,08,30,17,06,25.10
2007,08,30,17,07,25.10
2007,08,30,17,08,25.20
2007,08,30,17,09,25.20
2007,08,30,17,10,25.20
2007,08,30,17,11,25.30
2007,08,30,17,12,25.30
2007,08,30,17,13,25.30
2007,08,30,17,14,25.30
2007,08,30,17,15,25.30
2007,08,30,17,16,25.30
2007,08,30,17,17,25.30
2007,08,30,17,18,25.30
2007,08,30,17,19,25.20